Location: Moscow
(30.9132°N, 94.8252°W)
Time: 07:18:11
(UTC+00:00)

Cosmos 1782 Rocket - Pass Details

Date: 15 November 2025
Orbit: 599 x 626 km, 82.5° (Epoch: 13 December)

Event Time Altitude Azimuth Distance (km) Brightness Sun altitude
Exits shadow 10:42:05 37° 30° (NNE) 948 4.6 -26.6°
Maximum altitude 10:43:24 52° 82° (E) 756 4.2 -26.3°
Drops below altitude 10° 10:47:35 10° 159° (SSE) 1,938 6.4 -25.5°
Sets 10:49:49 0° 164° (SSE) 2,835 7.3 -25.0°
